Flag for Colombia Weather past 2 weeks in Villavicencio, Colombia

Now
50 °F

Scattered showers. Partly sunny.


Feels Like: 47 °F
Forecast: 60 / 86 °F
Wind: 8 mph from East

Location: Bogota / Eldorado

Current Time: Jul 28, 2014 at 6:24:49 AM

Latest Report: Jul 28, 2014 at 6:00 AM


Visibility: N/A

Pressure: 30.39 "Hg

Humidity: 94%

Dew point: 48 °F

Location of VillavicencioLocation

Historic Weather in Villavicencio — Graph

°F

Villavicencio temperature yesterday

Maximum temperature yesterday: 66 °F (at 2:00 PM)
Minimum temperature yesterday: 50 °F (at 4:00 AM)
Average temperature yesterday: 57 °F

Past Weeks' High & Low Weather Summary

 TemperatureHumidityPressure
High70 °F (Jul 26, 1:00 PM)100% (Jul 14, 4:00 AM)30.45 "Hg (Jul 14, 4:00 AM)
Low48 °F (Jul 13, 6:00 AM)35% (Jul 25, 3:00 PM)30.24 "Hg (Jul 25, 5:00 PM)
Average57 °F72%30.36 "Hg
* Reported Jul 13 5:00 AM — Jul 28 5:00 AM, Villavicencio, Weather by CustomWeather, © 2014

Note: Actual official high and low records may vary slightly from our data, if they occured in-between our weather recording intervals... More about our weather records

Advertising

Villavicencio weather history for previous 24 hours

 ConditionsComfort  
Time TempWeatherWind HumidityBarometerVisibility
5:00 AM
Jul 28
50 °FScattered showers. Passing clouds.9 mph94%30.38 "HgN/A
4:00 AM52 °FScattered showers. Passing clouds.3 mph88%30.37 "HgN/A
3:00 AM52 °FScattered showers. Passing clouds.2 mph88%30.38 "HgN/A
2:00 AM52 °FScattered showers. Passing clouds.No wind82%30.38 "HgN/A
1:00 AM52 °FPassing clouds.2 mph82%30.41 "HgN/A
12:00 AM54 °FPassing clouds.2 mph77%30.43 "HgN/A
11:00 PM
Jul 27
55 °FPassing clouds.7 mph72%30.43 "HgN/A
10:00 PM57 °FPassing clouds.5 mph67%30.43 "HgN/A
9:00 PM54 °FPassing clouds.5 mph77%30.43 "HgN/A
8:00 PM57 °FPassing clouds.6 mph67%30.41 "HgN/A
7:00 PM57 °FPassing clouds.9 mph67%30.38 "HgN/A
6:00 PM57 °FScattered clouds.6 mph63%30.35 "HgN/A
5:00 PM61 °FScattered showers. Broken clouds.12 mph52%30.33 "HgN/A
4:00 PM63 °FScattered showers. Broken clouds.22 mph49%30.32 "HgN/A
3:00 PM66 °FScattered showers. Partly sunny.12 mph40%30.32 "HgN/A
2:00 PM66 °FPartly sunny.10 mph43%30.32 "HgN/A
1:00 PM64 °FPartly sunny.12 mph46%30.35 "HgN/A
12:00 PM63 °FPartly sunny.14 mph52%30.38 "HgN/A
11:00 AM61 °FPartly sunny.10 mph55%30.40 "HgN/A
10:00 AM59 °FPartly sunny.6 mph63%30.41 "HgN/A
9:00 AM57 °FPartly sunny.5 mph67%30.41 "HgN/A
8:00 AM54 °FPartly sunny.6 mph82%30.41 "HgN/A
7:00 AM52 °FPartly sunny.2 mph88%30.40 "HgN/A
6:00 AM50 °FScattered clouds.No wind88%30.36 "HgN/A
Weather by CustomWeather, © 2014

See weather overviewHow to use our weather pages